BMCB-11 Weather Reports


time (UTC)temp
C
wind
direction
speed
KPH
gust
KPH
rain 1hr
cm
rain 24hr
cm
rain mn
cm
humidity
%
barometer
mb
20260506195047 10 0 0.0 0.0 0.00 0.30 0.23 85 1012.3
20260506194050 10 0 0.0 0.0 0.00 0.33 0.23 86 1012.2
20260506193049 10 0 0.0 0.0 0.00 0.33 0.23 87 1012.2
20260506192049 10 0 0.0 0.0 0.00 0.33 0.23 88 1012.1
20260506191049 10 0 0.0 0.0 0.00 0.33 0.23 88 1012.0
20260506190051 10 0 0.0 0.0 0.00 0.33 0.23 89 1011.9
20260506185048 10 0 0.0 0.0 0.00 0.33 0.23 90 1011.8
20260506184041 10 0 0.0 0.0 0.00 0.33 0.23 89 1011.7
20260506183051 10 0 0.0 0.0 0.00 0.33 0.23 89 1011.6
20260506182051 10 0 0.0 0.0 0.00 0.33 0.23 88 1011.5
20260506181046 10 0 0.0 0.0 0.00 0.33 0.23 88 1011.4
20260506180049 10 0 0.0 0.0 0.00 0.33 0.23 88 1011.3
20260506175051 11 0 0.0 0.0 0.00 0.33 0.23 88 1011.2
20260506174048 11 0 0.0 0.0 0.00 0.33 0.23 88 1011.0
20260506173047 11 0 0.0 0.0 0.00 0.33 0.23 88 1010.9
20260506172049 11 0 0.0 0.0 0.00 0.33 0.23 88 1010.9
20260506171048 11 0 0.0 0.0 0.00 0.33 0.23 87 1010.8
20260506170048 11 0 0.0 0.0 0.00 0.33 0.23 87 1010.8
20260506165045 11 0 0.0 0.0 0.00 0.33 0.23 86 1010.7
20260506164048 11 0 0.0 0.0 0.00 0.33 0.23 85 1010.7
20260506162046 11 0 0.0 0.0 0.00 0.33 0.23 85 1010.7
20260506161048 11 0 0.0 0.0 0.00 0.33 0.23 86 1010.7
20260506160047 11 0 0.0 0.0 0.00 0.33 0.23 86 1010.7
20260506155048 11 0 0.0 0.0 0.00 0.33 0.23 86 1010.7
20260506154052 11 0 0.0 0.0 0.00 0.33 0.23 86 1010.7
20260506153048 11 0 0.0 0.0 0.00 0.33 0.23 84 1010.7
20260506151050 11 0 0.0 0.0 0.00 0.33 0.23 83 1010.6
20260506150048 11 0 0.0 0.0 0.00 0.33 0.23 83 1010.6
20260506145050 12 0 0.0 0.0 0.00 0.33 0.23 83 1010.6
20260506144047 12 0 0.0 0.0 0.00 0.33 0.23 82 1010.4
20260506143045 12 0 0.0 0.0 0.00 0.33 0.23 82 1010.4
20260506142047 12 0 0.0 0.0 0.00 0.33 0.23 82 1010.4
20260506141047 12 0 0.0 0.0 0.00 0.33 0.23 83 1010.5
20260506135049 12 0 0.0 0.0 0.03 0.33 0.23 83 1010.4
20260506133047 11 0 0.0 0.0 0.03 0.33 0.23 86 1010.5
20260506132048 11 0 0.0 0.0 0.03 0.33 0.23 87 1010.5
20260506131047 11 0 0.0 0.0 0.03 0.33 0.23 89 1010.6
20260506125047 11 0 0.0 0.0 0.03 0.33 0.23 90 1010.4
20260506124045 11 0 0.0 0.0 0.00 0.30 0.23 89 1010.3
20260506123048 11 0 0.0 0.0 0.00 0.30 0.23 91 1010.2
20260506122048 11 0 0.0 0.0 0.00 0.30 0.23 93 1010.3
20260506121045 10 0 0.0 0.0 0.00 0.33 0.23 96 1010.4
20260506120046 10 0 0.0 0.0 0.00 0.33 0.23 97 1010.4
20260506115047 10 0 0.0 0.0 0.00 0.33 0.23 96 1010.4
20260506114022 10 0 0.0 0.0 0.00 0.33 0.23 95 1010.5
20260506113016 10 0 0.0 0.0 0.00 0.33 0.23 96 1010.5
20260506111021 9 0 0.0 0.0 0.00 0.33 0.23 98 1010.5
20260506110021 9 0 0.0 0.0 0.00 0.33 0.23 99 1010.5
20260506105022 8 0 0.0 0.0 0.00 0.33 0.23 10 1010.6
20260506103021 8 0 0.0 0.0 0.00 0.33 0.23 99 1010.4
20260506102023 8 0 0.0 0.0 0.00 0.33 0.23 99 1010.4
20260506101018 8 0 0.0 0.0 0.00 0.33 0.23 99 1010.3
20260506100021 8 0 0.0 0.0 0.00 0.33 0.23 99 1010.2
20260506095023 8 0 0.0 0.0 0.00 0.33 0.23 98 1010.2
20260506094030 8 0 0.0 0.0 0.00 0.33 0.23 98 1010.2
20260506093022 8 0 0.0 0.0 0.00 0.33 0.23 98 1010.2
20260506092022 8 0 0.0 0.0 0.00 0.33 0.23 98 1010.1
20260506091023 8 0 0.0 0.0 0.00 0.33 0.23 99 1010.0
20260506090023 8 0 0.0 0.0 0.00 0.33 0.23 99 1009.9
20260506085021 8 0 0.0 0.0 0.00 0.33 0.23 98 1009.9
20260506084022 8 0 0.0 0.0 0.00 0.33 0.23 98 1009.8
20260506083022 8 0 0.0 0.0 0.00 0.33 0.23 97 1009.8
20260506082023 8 0 0.0 0.0 0.00 0.33 0.23 95 1009.7
20260506081023 8 0 0.0 0.0 0.00 0.33 0.23 94 1009.7
20260506073024 8 0 0.0 0.0 0.00 0.33 0.23 93 1009.4
20260506072021 8 0 0.0 0.0 0.00 0.33 0.23 94 1009.3
20260506071023 8 0 0.0 0.0 0.00 0.33 0.23 94 1009.3
20260506062022 7 0 0.0 0.0 0.00 0.33 0.23 95 1009.1
20260506061022 7 0 0.0 0.0 0.00 0.33 0.23 95 1009.0
20260506051046 7 0 0.0 0.0 0.03 0.33 0.23 97 1009.1
20260506045022 7 0 0.0 0.0 0.03 0.33 0.23 97 1009.1
20260506044022 7 0 0.0 0.0 0.03 0.33 0.23 97 1009.1
20260506043022 7 0 0.0 0.0 0.00 0.33 0.20 97 1009.0
20260506042022 7 0 0.0 0.0 0.03 0.33 0.20 97 1009.0
20260506041022 7 0 0.0 0.0 0.03 0.33 0.20 98 1009.0
20260506040043 7 0 0.0 0.0 0.03 0.33 0.20 98 1009.0
20260506035038 7 0 0.0 0.0 0.03 0.33 0.20 98 1009.0
20260506034022 7 0 0.0 0.0 0.03 0.33 0.20 98 1009.0
20260506033042 7 0 0.0 0.0 0.03 0.33 0.20 98 1009.0
20260506032022 7 0 0.0 0.0 0.03 0.33 0.20 98 1008.9
20260506031021 7 0 0.0 0.0 0.00 0.30 0.18 98 1009.0
20260506030022 7 0 0.0 0.0 0.03 0.30 0.18 98 1009.0
20260506024022 7 0 0.0 0.0 0.03 0.30 0.18 98 1009.1
20260506023047 7 0 0.0 0.0 0.05 0.30 0.18 98 1009.1
20260506022021 7 0 0.0 0.0 0.05 0.30 0.18 98 1009.0
20260506015050 7 0 0.0 0.0 0.05 0.28 0.15 99 1009.1
20260506014023 8 0 0.0 0.0 0.05 0.28 0.15 99 1009.1
20260506013023 8 0 0.0 0.0 0.05 0.28 0.15 98 1009.1
20260506011046 8 0 0.0 0.0 0.05 0.25 0.15 98 1009.1
20260506010026 8 0 0.0 0.0 0.03 0.23 0.13 99 1009.2
20260506004042 8 0 0.0 0.0 0.03 0.23 0.10 99 1009.2
20260506003023 8 0 0.0 0.0 0.03 0.23 0.10 99 1009.2
20260506002043 8 0 0.0 0.0 0.03 0.23 0.10 98 1009.3
20260506001023 8 0 0.0 0.0 0.05 0.23 0.10 99 1009.4
20260506000023 8 0 0.0 0.0 0.05 0.23 0.10 99 1009.4
20260505235046 8 0 0.0 0.0 0.05 0.23 0.10 99 1009.4
20260505234047 8 0 0.0 0.0 0.05 0.23 0.10 10 1009.4
20260505233046 9 0 0.0 0.0 0.05 0.20 0.08 10 1009.4
20260505232048 9 0 0.0 0.0 0.05 0.20 0.08 10 1009.5
20260505225050 9 0 0.0 0.0 0.05 0.15 0.05 10 1009.7
20260505224046 9 0 0.0 0.0 0.05 0.15 0.05 10 1009.7
20260505221049 9 0 0.0 0.0 0.05 0.15 0.03 10 1009.7
20260505214052 9 0 0.0 0.0 0.05 0.10 0.10 99 1009.8
20260505212050 9 0 0.0 0.0 0.03 0.08 0.08 99 1009.9
20260505211050 9 0 0.0 0.0 0.03 0.08 0.08 99 1009.9
20260505210049 9 0 0.0 0.0 0.03 0.08 0.08 99 1009.9
20260505205047 9 0 0.0 0.0 0.03 0.08 0.08 99 1010.0
20260505204048 9 0 0.0 0.0 0.05 0.08 0.08 99 1009.9
20260505203046 9 0 0.0 0.0 0.03 0.05 0.05 99 1009.9
20260505202047 9 0 0.0 0.0 0.03 0.05 0.05 98 1009.9
20260505201053 10 0 0.0 0.0 0.03 0.05 0.05 98 1009.8